Regional Weather Roundup
Issued by NWS

Home | Current Version | Previous Version | Text Only | Print | Product List | Glossary On
Versions: 1 2 3 4 5 6 7 8 9 10 11 12 13 14 15 16 17 18 19 20 21 22 23 24 25 26 27 28 29 30 31 32 33 34 35 36 37 38 39 40 41 42 43 44 45 46 47 48 49 50
000
ASUS43 KDTX 211601
RWRMI
MICHIGAN HOURLY REGIONAL WEATHER ROUNDUP
NATIONAL WEATHER SERVICE DETROIT/PONTIAC MI
1100 AM EST SUN DEC 21 2014

NOTE: "FAIR" INDICATES FEW OR NO CLOUDS BELOW 12,000 FEET WITH NO
SIGNIFICANT WEATHER AND/OR OBSTRUCTION TO VISIBILITY.

MIZ047>049-052>055-059>063-066>070-074>076-081>083-211700-
SOUTHEAST LOWER MICHIGAN

CITY           SKY/WX    TMP DP  RH WIND       PRES   REMARKS
ADRIAN         CLOUDY    30  25  81 S5        30.31S HAZE    WCI  25
ALMA           CLOUDY    31  29  90 S5        30.26S FOG     WCI  27
ANN ARBOR      CLOUDY    31  24  75 S5        30.30S WCI  26
BAD AXE        CLOUDY    29  27  90 S7        30.29S WCI  22
CARO           CLOUDY    30  26  83 S7        30.28S WCI  23
DETROIT CITY   PTSUNNY   34  24  67 S5        30.32S WCI  30
DETROIT        PTSUNNY   33  23  66 S8        30.32S WCI  26
FLINT          CLOUDY    32  24  72 S7        30.29S WCI  26
GROSSE ILE     PTSUNNY   34  27  75 S5        30.31S WCI  30
HILLSDALE      CLOUDY    31  29  91 S7        30.27S FOG     WCI  25
HOWELL         CLOUDY    30  26  84 SE6       30.28R FOG     WCI  24

CITY           SKY/WX    TMP DP  RH WIND       PRES   REMARKS
JACKSON        CLOUDY    31  27  85 S6        30.27S FOG     WCI  25
LAMBERTVILLE   MOSUNNY   34  27  75 S3        30.32R
LANSING        CLOUDY    31  26  82 S9        30.27S HAZE    WCI  23
LAPEER         CLOUDY    30  25  81 S5        30.29S WCI  25
MASON          CLOUDY    30  27  86 S7        30.27S FOG     WCI  23
MONROE         MOSUNNY   32  25  74 S3        30.30S
MT. CLEMENS    PTSUNNY   32  27  83 S8        30.29S WCI  25
PONTIAC        CLOUDY    30  22  72 SE8       30.28R WCI  22
PORT HOPE        N/A     28  23  81 CALM      30.28S
PORT HURON     CLOUDY    30  25  80 SE3       30.32R
TRI CITIES     CLOUDY    32  26  78 S6        30.28S WCI  26
TROY           PTSUNNY   33  23  65 SE5       30.32S WCI  29
SAGINAW HB     CLOUDY    32  28  86 S6        30.28S WCI  26
$$
MIZ043>046-050>051-056>058-064>065-071>073-077>080-211700-
SOUTHWEST LOWER MICHIGAN

CITY           SKY/WX    TMP DP  RH WIND       PRES   REMARKS
BATTLE CREEK   CLOUDY    32  26  78 S8        30.26S HAZE    WCI  25
BENTON HARBOR  CLOUDY    32  26  78 S12       30.24S HAZE    WCI  23
BIG RAPIDS     CLOUDY    31  31 100 S5        30.20F FOG     WCI  26
COLDWATER      CLOUDY    32  26  81 MISG      30.27S HAZE
FREMONT        CLOUDY    32  28  86 S7        30.21F WCI  26
HOLLAND        CLOUDY    34  27  75 S9        30.24S WCI  27
GRAND RAPIDS   CLOUDY    32  26  78 S9        30.25S HAZE    WCI  24
IONIA          CLOUDY    32  28  84 S8        30.25S FOG     WCI  25
KALAMAZOO      CLOUDY    32  26  78 S8        30.26S HAZE    WCI  25
LUDINGTON      CLOUDY    36  32  87 S8        30.20R FOG     WCI  29
MARSHALL       CLOUDY    31  26  82 S6        30.26F WCI  25
MOUNT PLEASANT CLOUDY    31  28  90 S6        30.24F FOG     WCI  25
MUSKEGON       CLOUDY    33  26  75 SE13      30.23S HAZE    WCI  24
SOUTH HAVEN    CLOUDY    33  28  80 S9        30.24S HAZE    WCI  25
$$
MIZ016>042-211700-
NORTHERN LOWER MICHIGAN

CITY           SKY/WX    TMP DP  RH WIND       PRES   REMARKS
ALPENA         CLOUDY    28  23  81 S10       30.26S WCI  19
BEAVER ISLAND  CLOUDY    32  30  93 SE3       30.18S FOG
BELLAIRE       CLOUDY    31  28  85 S6        30.21F FOG     WCI  26
CADILLAC       CLOUDY    29  28  96 SE6       30.17F FOG     WCI  23
CHARLEVOIX     CLOUDY    30  27  89 SE7       30.22S FOG     WCI  23
FRANKFORT      CLOUDY    32  31  94 S8        30.18S FOG     WCI  25
GAYLORD        CLOUDY    26  25  96 S7        30.18F FOG     WCI  18
GRAYLING       CLOUDY    28  28  97 SE7       30.21S FOG     WCI  21
HARBOR SPRINGS CLOUDY    28  24  85 NE6       30.20F WCI  21
HOUGHTON LAKE  CLOUDY    27  25  92 S7        30.22S FOG     WCI  19
MANISTEE       CLOUDY    32  28  86 SE5       30.19S WCI  27
OSCODA         CLOUDY    28  26  95 CALM      30.27S FOG
PELLSTON       CLOUDY    27  23  85 SE6       30.21F WCI  20
ROGERS CITY    CLOUDY    26  25  94 S6        30.25F WCI  20
TRAVERSE CITY  CLOUDY    32  28  85 S5        30.19S FOG     WCI  27
$$
MIZ007>008-015-211700-
EASTERN UPPER MICHIGAN

CITY           SKY/WX    TMP DP  RH WIND       PRES   REMARKS
KINROSS        CLOUDY    28  27  93 SE9       30.21S WCI  20
MACKINAC ISLAN CLOUDY    29  24  83 SE8       30.20F WCI  21
NEWBERRY       CLOUDY    28  25  91 SE9       30.16F WCI  19
S. S. MARIE    CLOUDY    28  23  81 SE8       30.22R WCI  20
MUNISING         N/A     33  27  78 S6        30.13R WCI  28
$$
MIZ004>006-011>014-085-211700-
CENTRAL UPPER MICHIGAN

CITY           SKY/WX    TMP DP  RH WIND       PRES   REMARKS
MANISTIQUE     LGT SNOW  33  33  98 S10G17    30.14S WCI  25
ESCANABA       CLOUDY    34  28  80 S7        30.13R WCI  28
MENOMINEE      CLOUDY    32  27  80 S6        30.12R WCI  26
SAWYER-GWINN   CLOUDY    28  25  86 S13       30.07S FOG     WCI  18
$$
MIZ001>003-009>011-084-211700-
WESTERN UPPER MICHIGAN

CITY           SKY/WX    TMP DP  RH WIND       PRES   REMARKS
IRON MOUNTAIN  CLOUDY    28  25  88 SE8       30.06F FOG     WCI  20
HOUGHTON       CLOUDY    30  25  81 S7        30.01S WCI  23
COPPER HARBOR    N/A     34  28  79 CALM      30.04S
IRONWOOD       CLOUDY    32  28  86 S7        29.91F WCI  26
$$

ABBREVIATIONS USED IN REMARKS
   TC - TEMPERATURE IN CELSIUS
  WCI - WIND CHILL INDEX
   HX - HEAT INDEX
  VSB - VISIBILITY




USA.gov is the U.S. government's official web portal to all federal, state and local government web resources and services.